Weather reports worldwide

Advertisment
Chivenor, United Kingdom (3707): temperature & dewpoint: 16.01.2020 00:00:00 - 22.01.2020 00:00:00 (GMT)Chivenor, United Kingdom (3707): temperature -20cm & temperature -100cm: 16.01.2020 00:00:00 - 22.01.2020 00:00:00 (GMT)Chivenor, United Kingdom (3707): wind speed & gusts: 16.01.2020 00:00:00 - 22.01.2020 00:00:00 (GMT)Chivenor, United Kingdom (3707): wind direction: 16.01.2020 00:00:00 - 22.01.2020 00:00:00 (GMT)Chivenor, United Kingdom (3707): reduced air pressure: 16.01.2020 00:00:00 - 22.01.2020 00:00:00 (GMT)Chivenor, United Kingdom (3707): visibility: 16.01.2020 00:00:00 - 22.01.2020 00:00:00 (GMT)Chivenor, United Kingdom (3707): precipitation: 16.01.2020 00:00:00 - 22.01.2020 00:00:00 (GMT)
Date & Time tt [°C] td [°C] tt -20cm [°C] tt -100cm [°C] ff [km/h] ff [kn] fx [km/h] fx [kn] dd ppp [hPa] vv [km] rr [mm]
22.01.2020 00:00:00 - - - - - - - - - - - -
21.01.2020 23:00:00 0,1 -0,6 - - 9 5 - - E 1041,1 13 0,0
21.01.2020 22:00:00 0,6 -0,2 - - 9 5 - - E 1041,0 17 0,0
21.01.2020 21:00:00 1,1 0,1 - - 9 5 - - E 1040,8 21 0,0
21.01.2020 20:00:00 2,3 1,2 - - 9 5 - - ENE 1041,0 17 0,0
21.01.2020 19:00:00 2,4 0,6 - - 4 2 - - ESE 1041,1 19 0,0
21.01.2020 18:00:00 4,3 2,6 - - 9 5 - - E 1040,8 40 0,0
21.01.2020 17:00:00 5,5 2,5 - - 8 4 - - NE 1040,8 45 0,0
21.01.2020 16:00:00 7,5 3,6 - - 9 5 - - NNE 1040,9 28 0,0
21.01.2020 15:00:00 8,0 2,4 - - 4 2 - - W 1041,0 25 0,0
21.01.2020 14:00:00 8,5 2,4 - - 2 1 - - S 1041,5 40 0,0
21.01.2020 13:00:00 8,1 2,7 - - 4 2 - - SSE 1041,9 24 0,0
21.01.2020 12:00:00 5,3 2,6 - - 4 2 - - E 1042,7 35 0,0
21.01.2020 11:00:00 2,5 0,9 - - 9 5 - - E 1043,3 16 0,0
21.01.2020 10:00:00 0,8 -0,1 - - 15 8 - - E 1043,5 23 0,0
21.01.2020 09:00:00 -0,2 -0,9 4,5 8,7 15 8 - - E 1043,5 17 0,0
21.01.2020 08:00:00 -0,4 -1,0 - - 13 7 - - E 1043,3 16 0,0
21.01.2020 07:00:00 -0,5 -1,2 - - 9 5 - - E 1042,9 12 0,0
21.01.2020 06:00:00 0,8 0,2 - - 11 6 - - E 1042,7 11 0,0
21.01.2020 05:00:00 1,1 0,5 - - 5 3 - - ESE 1042,9 7 0,0
21.01.2020 04:00:00 0,9 0,3 - - 11 6 - - E 1043,3 12 0,0
21.01.2020 03:00:00 0,6 0,0 - - 9 5 - - E 1043,8 10 0,0
21.01.2020 02:00:00 0,9 0,3 - - 11 6 - - E 1044,1 9 0,0
21.01.2020 01:00:00 0,6 -0,1 - - 8 4 - - E 1044,7 9 0,0
21.01.2020 00:00:00 0,7 0,1 - - 5 3 - - ESE 1045,4 8 0,0
20.01.2020 23:00:00 0,6 -0,1 - - 5 3 - - ESE 1045,8 5 0,0
20.01.2020 22:00:00 0,4 -0,3 - - 11 6 - - E 1046,3 7 0,0
20.01.2020 21:00:00 0,3 -0,7 - - 8 4 - - E 1046,5 3,2 0,0
20.01.2020 20:00:00 1,9 1,0 - - 9 5 - - ENE 1047,0 9 0,0
20.01.2020 19:00:00 1,5 -0,1 - - 4 2 - - ESE 1047,2 22 0,0
20.01.2020 18:00:00 2,7 0,7 - - 5 3 - - ESE 1047,3 15 0,0
20.01.2020 17:00:00 4,8 0,6 - - 2 1 - - WNW 1047,1 30 0,0
20.01.2020 16:00:00 8,0 2,9 - - 5 3 - - W 1047,2 35 0,0
20.01.2020 15:00:00 8,3 2,3 - - 4 2 - - W 1047,5 35 0,0
20.01.2020 14:00:00 7,0 1,4 - - 4 2 - - E 1047,9 25 0,0
20.01.2020 13:00:00 5,9 0,7 - - 8 4 - - ESE 1048,9 30 0,0
20.01.2020 12:00:00 3,9 0,4 - - 9 5 - - E 1049,3 21 0,0
20.01.2020 11:00:00 1,6 -1,1 - - 9 5 - - E 1050,0 27 0,0
20.01.2020 10:00:00 -0,5 -2,5 - - 13 7 - - E 1049,9 35 0,0
20.01.2020 09:00:00 -1,5 -2,9 4,7 8,9 11 6 - - E 1049,8 45 0,0
20.01.2020 08:00:00 -1,7 -3,2 - - 15 8 - - E 1049,6 45 0,0
20.01.2020 07:00:00 -1,8 -3,1 - - 15 8 - - E 1049,4 40 0,0
20.01.2020 06:00:00 -1,5 -2,5 - - 13 7 - - E 1049,3 45 0,0
20.01.2020 05:00:00 -1,6 -2,6 - - 13 7 - - E 1049,1 45 0,0
20.01.2020 04:00:00 -1,0 -2,2 - - 13 7 - - E 1049,4 45 0,0
20.01.2020 03:00:00 -1,0 -2,1 - - 15 8 - - E 1049,6 30 0,0
20.01.2020 02:00:00 -0,9 -1,8 - - 13 7 - - E 1049,7 40 0,0
20.01.2020 01:00:00 -0,4 -1,6 - - 11 6 - - E 1049,8 30 0,0
20.01.2020 00:00:00 -0,5 -1,7 - - 11 6 - - E 1049,9 30 0,0
19.01.2020 23:00:00 -0,8 -1,8 - - 13 7 - - ESE 1049,8 17 0,0
19.01.2020 22:00:00 -0,2 -1,1 - - 13 7 - - E 1049,4 19 0,0
19.01.2020 21:00:00 0,0 -1,1 - - 11 6 - - E 1049,7 16 0,0
19.01.2020 20:00:00 0,9 -0,3 - - 13 7 - - E 1049,5 19 0,0
19.01.2020 19:00:00 1,6 -0,1 - - 8 4 - - E 1048,9 22 0,0
19.01.2020 18:00:00 2,9 0,8 - - 4 2 - - E 1048,3 17 0,0
19.01.2020 17:00:00 4,8 0,1 - - 5 3 - - WNW 1047,9 20 0,0
19.01.2020 16:00:00 7,1 0,9 - - 5 3 - - WNW 1047,6 24 0,2
19.01.2020 15:00:00 9,3 1,0 - - 2 1 - - SW 1047,4 40 0,0
19.01.2020 14:00:00 8,7 1,6 - - 2 1 - - E 1046,9 40 0,0
19.01.2020 13:00:00 5,7 2,2 - - 8 4 - - E 1046,6 30 0,0
19.01.2020 12:00:00 3,9 1,1 - - 5 3 - - ESE 1047,1 30 0,0
19.01.2020 11:00:00 1,6 0,2 - - 4 2 - - SE 1047,1 20 0,0
19.01.2020 10:00:00 -0,1 -0,7 - - 5 3 - - E 1046,1 30 0,0
19.01.2020 09:00:00 -1,3 -1,8 5,5 9,2 11 6 - - E 1045,3 23 0,0
19.01.2020 08:00:00 -1,9 -2,4 - - 5 3 - - E 1044,5 16 0,0
19.01.2020 07:00:00 -1,9 -2,5 - - 5 3 - - SSE 1043,2 13 0,0
19.01.2020 06:00:00 -2,2 -3,0 - - 5 3 - - E 1042,5 19 0,0
19.01.2020 05:00:00 -1,7 -2,4 - - 8 4 - - E 1042,0 16 0,0
19.01.2020 04:00:00 -1,2 -1,9 - - 11 6 - - E 1041,0 14 0,0
19.01.2020 03:00:00 -1,3 -2,1 - - 5 3 - - ESE 1040,9 11 0,0
19.01.2020 02:00:00 0,0 -0,6 - - 11 6 - - E 1040,1 17 0,0
19.01.2020 01:00:00 -1,2 -2,0 - - 5 3 - - ESE 1039,5 9 0,0
19.01.2020 00:00:00 -0,6 -1,3 - - 9 5 - - E 1038,9 9 0,0
18.01.2020 23:00:00 -0,5 -1,5 - - 4 2 - - E 1038,1 8 0,0
18.01.2020 22:00:00 -0,3 -1,3 - - 2 1 - - S 1037,2 9 0,0
18.01.2020 21:00:00 1,2 0,1 - - 5 3 - - E 1036,5 15 0,0
18.01.2020 20:00:00 1,7 0,2 - - 5 3 - - E 1035,7 14 0,0
18.01.2020 19:00:00 2,1 -0,2 - - 4 2 - - ESE 1034,4 22 0,0
18.01.2020 18:00:00 3,0 -0,6 - - 4 2 - - ENE 1033,2 35 0,0
18.01.2020 17:00:00 5,8 0,5 - - 2 1 - - NE 1032,0 45 0,0
18.01.2020 16:00:00 7,1 0,3 - - 8 4 - - ENE 1030,9 30 0,0
18.01.2020 15:00:00 7,7 0,1 - - 11 6 - - NNE 1030,5 35 0,0
18.01.2020 14:00:00 7,6 0,6 - - 8 4 - - NE 1030,0 35 0,0
18.01.2020 13:00:00 6,4 3,2 - - 5 3 - - ESE 1029,9 22 0,0
18.01.2020 12:00:00 4,7 2,7 - - 9 5 - - E 1029,4 25 0,0
18.01.2020 11:00:00 2,9 1,7 - - 8 4 - - ESE 1029,2 30 0,2
18.01.2020 10:00:00 0,9 0,1 - - 11 6 - - ENE 1028,3 22 0,0
18.01.2020 09:00:00 0,2 -0,5 6,7 9,4 11 6 - - E 1027,6 17 0,0
18.01.2020 08:00:00 0,2 -0,5 - - 13 7 - - E 1026,8 24 0,0
18.01.2020 07:00:00 0,6 -0,1 - - 15 8 - - E 1026,4 27 0,0
18.01.2020 06:00:00 0,9 0,2 - - 13 7 - - E 1026,1 19 0,0
18.01.2020 05:00:00 1,1 0,1 - - 11 6 - - E 1025,4 17 0,0
18.01.2020 04:00:00 2,2 0,8 - - 11 6 - - E 1024,7 18 0,0
18.01.2020 03:00:00 4,7 2,4 - - 9 5 - - NNW 1024,4 18 0,0
18.01.2020 02:00:00 3,8 1,7 - - 4 2 - - NNW 1024,1 16 0,0
18.01.2020 01:00:00 6,0 2,7 - - 13 7 - - NNW 1023,4 21 0,0
18.01.2020 00:00:00 6,0 2,8 - - 15 8 - - NNW 1023,0 40 0,0
17.01.2020 23:00:00 6,6 2,6 - - 16 9 - - NW 1021,8 45 0,0
17.01.2020 22:00:00 6,5 2,7 - - 26 14 - - WNW 1020,7 35 0,0
17.01.2020 21:00:00 6,8 2,7 - - 26 14 - - WNW 1019,8 29 0,0
17.01.2020 20:00:00 7,0 2,2 - - 28 15 - - WNW 1019,0 17 0,0
17.01.2020 19:00:00 7,0 3,0 - - 29 16 46 25 WNW 1018,2 35 0,0
17.01.2020 18:00:00 6,1 2,3 - - 24 13 - - WNW 1017,1 45 0,0
17.01.2020 17:00:00 5,2 2,5 - - 35 19 59 32 W 1016,3 35 0,4
17.01.2020 16:00:00 6,8 3,7 - - 22 12 55 30 WSW 1015,7 27 1,0
17.01.2020 15:00:00 7,2 3,2 - - 31 17 48 26 WSW 1015,3 35 0,0
17.01.2020 14:00:00 6,4 2,6 - - 37 20 52 28 WSW 1014,9 6 0,2
17.01.2020 13:00:00 7,8 3,7 - - 37 20 52 28 W 1014,5 35 0,0
17.01.2020 12:00:00 6,5 4,0 - - 13 7 - - W 1014,6 35 0,2
17.01.2020 11:00:00 5,6 3,7 - - 18 10 - - WNW 1014,2 12 0,8
17.01.2020 10:00:00 5,1 3,4 - - 35 19 52 28 W 1013,1 8 1,0
17.01.2020 09:00:00 6,3 3,5 8,2 9,5 24 13 52 28 WNW 1011,6 40 0,0
17.01.2020 08:00:00 6,2 4,0 - - 41 22 74 40 NW 1009,8 21 0,0
17.01.2020 07:00:00 6,4 4,8 - - 50 27 65 35 W 1007,4 9 0,2
17.01.2020 06:00:00 7,1 5,3 - - 22 12 - - WSW 1006,2 18 0,2
17.01.2020 05:00:00 7,6 5,3 - - 34 18 52 28 SW 1005,7 14 0,4
17.01.2020 04:00:00 7,9 5,7 - - 15 8 - - S 1005,5 35 0,0
17.01.2020 03:00:00 6,6 4,7 - - 11 6 - - SSE 1006,1 50 0,2
17.01.2020 02:00:00 8,0 6,3 - - 16 9 - - SSW 1006,2 27 1,4
17.01.2020 01:00:00 8,9 7,4 - - 11 6 - - SSE 1006,2 16 0,2
17.01.2020 00:00:00 8,8 6,8 - - 9 5 - - SSE 1006,6 23 0,0
16.01.2020 23:00:00 9,0 7,2 - - 9 5 - - SSW 1006,8 11 0,0
16.01.2020 22:00:00 8,8 6,7 - - 13 7 - - S 1007,1 19 0,0
16.01.2020 21:00:00 8,9 6,5 - - 16 9 - - SSW 1006,8 22 0,0
16.01.2020 20:00:00 9,4 6,7 - - 18 10 - - SSW 1006,7 16 0,0
16.01.2020 19:00:00 10,2 7,3 - - 22 12 - - SW 1006,5 20 0,0
16.01.2020 18:00:00 10,7 7,6 - - 21 11 55 30 SW 1005,4 15 0,0
16.01.2020 17:00:00 11,9 8,7 - - 22 12 - - SW 1003,9 19 0,0
16.01.2020 16:00:00 12,5 10,0 - - 35 19 63 34 SW 1002,9 19 0,2
16.01.2020 15:00:00 13,0 10,9 - - 48 26 72 39 SSW 1001,9 8 0,2
16.01.2020 14:00:00 12,5 9,4 - - 42 23 74 40 S 1002,0 28 0,0
16.01.2020 13:00:00 12,7 10,1 - - 44 24 76 41 S 1003,3 30 0,0
16.01.2020 12:00:00 11,9 9,5 - - 48 26 76 41 S 1004,3 7 1,4
16.01.2020 11:00:00 10,0 8,6 - - 35 19 54 29 SE 1006,0 3,3 2,4
16.01.2020 10:00:00 10,2 7,8 - - 42 23 57 31 SSE 1007,3 11 0,4
16.01.2020 09:00:00 9,3 6,4 7,7 9,5 31 17 48 26 SE 1008,5 22 0,0
16.01.2020 08:00:00 9,0 5,8 - - 34 18 - - SE 1009,9 29 0,0
16.01.2020 07:00:00 8,8 4,8 - - 24 13 48 26 SSE 1010,9 24 0,0
16.01.2020 06:00:00 8,9 5,0 - - 28 15 - - SSE 1011,9 30 0,0
16.01.2020 05:00:00 9,3 5,7 - - 29 16 - - SSE 1012,7 27 0,0
16.01.2020 04:00:00 8,9 6,0 - - 18 10 - - SSE 1013,9 21 0,0
16.01.2020 03:00:00 9,4 5,6 - - 28 15 - - S 1014,5 22 0,0
16.01.2020 02:00:00 8,6 6,1 - - 21 11 - - SSE 1014,7 29 0,0
16.01.2020 01:00:00 5,9 4,5 - - 15 8 - - SE 1015,1 22 0,0
16.01.2020 00:00:00 5,6 4,0 - - 16 9 - - ESE 1015,2 19 0,0

tt = temperature
td = dewpoint
tt -20cm = temperature -20cm
tt -100cm = temperature -100cm
ff = wind speed
fx = gusts
dd = wind direction
ppp = reduced air pressure
vv = visibility
rr = precipitation

Next stations